Regional Weather Roundup
Issued by NWS

Home | Current Version | Previous Version | Text Only | Print | Product List | Glossary Off
Versions: 1 2 3 4 5 6 7 8 9 10 11 12 13 14 15 16 17 18 19 20 21 22 23 24 25 26 27 28 29 30 31 32 33 34 35 36 37 38 39 40 41 42 43 44 45 46 47 48 49 50

000
ASUS43 KLSX 212059
RWRMO

WEATHER SUMMARY FOR MISSOURI
NATIONAL WEATHER SERVICE SPRINGFIELD MO
300 PM CST FRI NOV 21 2014

NOTE: "FAIR" INDICATES FEW OR NO CLOUDS BELOW 12,000 FEET WITH NO
       SIGNIFICANT WEATHER AND/OR OBSTRUCTIONS TO VISIBILITY.
       CURRENT SKY AND/OR WEATHER CONDITIONS ARE NOT AVAILABLE FOR
       CHILLICOTHE AND FARMINGTON.

MOZ001>031-035>038-043-044-053-054-212200-
...NORTHERN AND WESTERN MISSOURI...

CITY           SKY/WX    TMP DP  RH WIND       PRES   REMARKS
KANSAS CTY INT LGT RAIN  39  35  86 E7        30.12S FOG
KANSAS C DTWN  CLOUDY    43  34  70 E6        30.12F
LEE`S SUMMIT   CLOUDY    44  33  65 SE8       30.13S
ST JOSEPH      LGT RAIN  38  31  76 SE9       30.13S
CHILLICOTHE      N/A     41  25  53 SE10      30.18F
KIRKSVILLE     CLOUDY    38  20  48 SE16      30.21F WCI  29

$$
MOZ066>068-077>081-088>096-101>105-212200-
...SOUTHWEST MISSOURI...

CITY           SKY/WX    TMP DP  RH WIND       PRES   REMARKS
SPRINGFIELD    CLOUDY    49  38  65 S17       30.14F
JOPLIN         CLOUDY    58  45  62 S10       30.10S

$$
MOZ032>034-039>042-045>050-055>058-069>072-212200-
...CENTRAL MISSOURI...

CITY           SKY/WX    TMP DP  RH WIND       PRES   REMARKS
COLUMBIA       CLOUDY    45  25  45 SE9       30.20F
JEFFERSON CITY CLOUDY    47  25  42 E9        30.22F
ROLLA          CLOUDY    45  25  45 SE12      30.21F
SEDALIA        LGT RAIN  46  30  53 SE12      30.16F
WARRENSBURG    CLOUDY    45  30  57 E8        30.15S
OSAGE BEACH    CLOUDY    48  30  49 SE9       30.19F

$$
MOZ051-052-059>065-212200-
...EAST CENTRAL MISSOURI...

CITY           SKY/WX    TMP DP  RH WIND       PRES   REMARKS
ST LOUIS INTL  PTSUNNY   42  20  41 SE13      30.30F
SPIRIT OF STL  PTSUNNY   42  21  43 SE10G17   30.29F
ST CHARLES     CLOUDY    40  22  48 SE14      30.30F

$$
MOZ072>076-082>087-097>100-106>115-212200-
...SOUTH CENTRAL AND SOUTHEAST MISSOURI...

CITY           SKY/WX    TMP DP  RH WIND       PRES   REMARKS
CAPE GIRARDEAU CLOUDY    45  27  49 SE8       30.32F
FARMINGTON       N/A     45  25  45 E9        30.29F
POPLAR BLUFF   LGT RAIN  43  30  60 SE9       30.31S
WEST PLAINS    CLOUDY    42  32  67 SE9       30.25F

$$



USA.gov is the U.S. government's official web portal to all federal, state and local government web resources and services.